Wind_Speed
15 15 14 14 13 11 12 13 13 12 12 12 11 11 10 10 9 7 7 10 13 16 26 24 21 15 10 4 2 6 4 2 4 5 4 3 7 8 4 3 1 4 14 12 19
14 15 14 14 12 11 12 11 10 10 9 8 6 6 6 5 3 3 7 9 12 20 30 24 19 14 9 4 4 6 4 1 7 9 7 7 4 4 2 2 1 6 12 11 13
14 13 13 12 10 10 10 10 8 7 6 5 4 3 3 3 5 5 9 14 19 33 29 21 16 12 7 5 8 3 4 4 4 7 8 10 7 6 5 3 3 5 8 10 9
14 13 12 11 10 10 10 8 7 6 4 4 5 3 2 5 4 9 11 17 25 27 18 16 15 10 6 6 5 4 7 8 5 6 7 5 6 3 2 3 3 3 7 2 6
13 13 12 11 10 10 10 9 6 5 6 8 6 4 6 10 11 12 16 18 18 17 16 15 14 9 6 7 7 6 5 8 8 8 6 9 5 7 1 5 7 6 4 5 2
13 12 11 11 10 11 10 8 6 7 10 9 8 13 19 21 25 25 26 25 22 21 20 18 12 7 11 11 9 7 5 6 8 8 7 10 9 11 5 6 2 8 7 2 5
12 12 11 12 12 12 10 8 7 11 13 10 14 20 22 25 22 22 20 18 19 20 19 17 8 9 8 7 4 1 6 9 11 11 11 11 18 10 13 8 6 5 10 6 4
12 12 12 12 12 11 9 7 9 15 14 11 20 22 23 19 18 17 15 16 17 17 17 13 6 7 10 8 6 4 3 4 12 11 11 14 10 6 13 9 3 6 9 10 3
11 12 13 12 12 10 8 7 14 18 14 13 25 22 19 16 15 15 15 14 14 13 14 12 6 6 6 5 5 9 9 6 4 5 9 12 9 9 9 7 8 9 7 7 5
12 12 12 12 11 10 8 10 20 20 15 15 25 18 16 12 13 13 14 12 10 9 9 8 4 4 4 2 1 6 8 7 5 4 4 11 10 6 7 8 8 8 4 4 6
11 12 12 12 11 10 10 14 21 18 16 16 22 14 15 11 11 10 10 11 7 6 8 10 4 4 2 4 5 4 4 4 4 3 2 5 7 10 13 14 6 8 4 4 6
10 12 12 12 12 13 14 17 20 21 15 11 13 15 14 11 7 7 6 6 7 7 6 9 6 4 3 3 2 2 3 4 3 7 10 10 10 10 8 4 7 9 8 7 6
7 10 12 13 15 18 16 15 20 18 16 11 12 12 16 12 9 9 7 8 6 5 4 5 4 7 4 1 1 4 6 6 8 9 8 3 5 4 2 1 5 12 14 10 8
6 9 13 17 20 19 13 12 18 15 10 11 12 10 10 9 8 11 12 11 8 5 7 4 7 7 5 2 2 6 9 11 11 10 4 5 2 5 3 7 9 9 10 9 9
6 9 14 21 24 18 13 12 16 14 5 9 12 9 8 8 9 9 8 6 4 3 4 6 9 6 5 2 5 7 11 14 10 3 6 8 2 5 8 6 6 5 6 5 9
6 10 15 22 22 17 14 12 14 7 1 5 13 11 9 12 11 10 7 2 2 3 6 11 8 5 5 4 6 9 11 5 5 9 2 10 3 3 6 6 5 2 2 8 12
6 10 16 21 20 16 13 12 6 2 4 5 7 13 14 13 10 10 8 2 5 8 13 10 7 7 4 2 5 7 14 5 2 3 3 8 3 3 2 5 7 5 4 10 8
5 10 17 19 20 17 13 11 3 6 6 7 6 10 13 13 11 10 8 3 6 9 12 7 5 6 2 1 2 8 12 6 4 4 8 7 2 3 4 4 8 11 8 12 11
5 9 17 16 21 15 14 10 3 4 7 4 7 12 13 12 10 12 8 7 6 13 6 8 6 9 7 4 3 5 8 5 2 4 3 3 4 8 7 7 9 12 12 14 13
5 9 18 17 22 17 15 11 5 4 6 7 5 8 16 16 12 11 7 5 8 11 8 8 6 11 9 6 3 3 4 6 5 3 6 4 7 9 15 10 11 13 15 15 11
6 10 19 18 19 19 16 14 13 5 2 6 6 7 10 17 16 10 9 11 7 11 11 11 10 7 11 8 5 3 2 1 1 2 5 5 10 17 10 13 14 15 18 15 10
7 9 16 19 14 17 16 16 14 13 7 1 5 7 7 10 14 14 13 14 11 13 14 11 9 8 10 6 3 4 2 3 2 4 6 7 14 5 17 14 13 16 18 10 12
9 9 11 23 18 15 16 15 13 12 9 3 5 6 5 5 2 5 10 14 16 13 11 12 7 6 4 4 6 6 6 6 7 9 11 7 10 22 19 15 17 12 5 10 12
12 10 9 16 22 19 17 15 13 11 10 9 5 4 2 3 3 1 4 8 12 11 13 10 10 7 6 4 3 5 5 8 10 9 12 15 20 17 12 12 8 7 8 10 11
15 14 14 14 13 15 16 12 14 11 9 12 9 6 3 5 5 4 2 3 8 9 9 8 7 7 5 4 4 7 9 10 14 14 12 17 18 11 13 10 10 11 10 10 10
15 16 17 13 17 13 11 9 8 12 11 10 10 9 6 4 3 3 8 8 7 11 10 9 6 5 4 4 6 9 9 12 9 12 11 12 12 10 9 11 11 12 8 11 14
16 17 17 19 17 14 13 11 6 11 8 9 12 13 9 7 5 7 8 12 12 8 7 6 5 5 7 7 8 7 12 7 13 13 16 15 13 11 10 11 12 8 11 14 16
Wind_Direction
222 226 225 230 230 233 242 244 248 250 254 259 265 270 268 268 267 253 221 202 197 190 177 195 195 186 188 176 338 342 327 305 223 225 204 145 194 186 155 223 102 67 55 76 63
226 227 226 226 224 232 237 236 241 247 251 255 265 266 263 261 242 208 171 169 161 159 171 188 184 178 176 186 309 303 308 211 215 238 234 255 216 204 139 262 1 44 63 84 79
221 221 217 216 210 216 229 231 232 229 239 251 236 217 236 186 140 145 150 149 149 157 177 184 179 168 189 246 280 270 210 217 210 217 218 235 238 238 221 313 3 30 51 55 82
216 214 211 204 204 212 222 212 209 223 220 192 145 125 165 142 156 140 141 148 155 169 174 174 171 174 205 243 248 123 181 194 190 209 211 210 229 190 46 242 332 14 63 5 50
212 210 210 207 207 204 202 202 202 207 176 144 132 123 111 114 118 129 130 140 140 137 141 161 162 182 150 123 118 124 180 208 232 237 230 219 211 226 275 268 272 298 28 65 293
209 210 207 208 196 192 196 200 193 185 150 136 131 126 115 105 107 109 116 119 122 130 146 158 158 152 119 104 108 164 204 223 238 228 218 224 238 249 230 272 339 283 301 16 277
203 200 198 198 187 194 195 196 182 165 144 135 142 131 118 112 113 115 114 115 124 127 145 164 147 123 114 98 86 215 233 223 218 227 228 221 233 235 241 262 281 301 281 270 292
190 187 191 190 193 197 196 188 174 157 146 141 146 133 119 118 116 111 114 119 125 123 148 159 137 100 94 86 44 127 109 200 230 242 221 214 239 249 246 245 300 290 292 277 300
186 187 191 192 199 200 197 181 169 157 150 148 149 143 133 123 126 122 136 124 121 123 150 155 125 82 87 78 86 64 72 87 78 244 238 202 247 227 224 218 243 271 294 290 276
195 195 199 200 202 204 188 177 166 163 155 154 160 153 151 140 136 132 145 138 124 133 158 174 133 65 51 82 94 81 49 64 90 94 154 207 253 251 253 257 258 253 310 287 273
198 201 202 201 198 189 180 173 169 172 162 156 172 172 165 154 154 148 150 154 141 167 190 203 181 103 125 128 102 65 46 82 82 67 306 285 297 304 283 272 243 227 233 250 266
191 200 194 195 183 174 172 174 178 172 171 157 157 171 180 174 177 203 186 188 161 183 169 168 185 173 158 96 79 350 2 360 319 321 322 308 301 307 289 272 219 179 163 196 231
182 190 182 180 170 165 166 169 179 175 171 169 159 168 187 204 196 217 221 214 185 167 146 158 165 154 134 102 296 356 341 332 324 309 321 275 278 283 294 109 166 167 155 145 173
166 177 172 169 165 157 146 156 179 167 170 174 172 175 185 191 179 157 148 150 143 144 143 146 167 151 139 172 36 347 331 318 304 300 312 255 271 230 175 143 145 131 131 88 94
161 168 168 167 165 158 145 146 173 158 142 180 184 182 182 175 162 157 149 148 89 121 161 141 130 140 155 88 11 349 343 315 307 143 75 27 251 238 201 177 169 137 134 58 31
162 162 167 173 170 158 153 155 158 163 111 172 194 201 205 170 161 171 178 177 193 141 138 147 142 142 118 48 6 333 340 355 67 156 31 15 4 317 209 202 202 182 168 15 355
169 163 172 176 166 160 168 171 157 106 126 104 177 200 187 179 155 174 196 233 180 145 144 139 141 120 95 25 336 1 16 0 39 25 356 345 353 3 353 230 233 242 266 343 311
178 171 178 176 167 167 174 173 123 101 103 144 158 184 192 186 189 192 207 241 183 183 159 161 160 159 144 284 343 16 31 37 356 334 332 325 338 347 354 322 311 283 290 311 297
185 180 182 167 176 172 187 184 112 102 48 107 139 185 197 203 203 214 222 238 188 169 183 173 187 197 202 226 318 328 3 5 297 302 298 313 295 330 338 333 309 319 302 292 278
195 185 184 176 187 187 198 201 170 109 68 86 126 178 200 207 212 219 225 241 215 204 207 217 185 207 208 228 260 326 329 344 336 315 324 306 295 303 325 319 309 314 298 279 289
205 192 192 194 194 198 210 221 222 236 80 68 92 109 187 203 220 228 234 244 234 219 221 223 223 214 220 226 255 307 302 279 271 261 304 304 307 308 320 313 303 305 288 273 301
205 205 197 201 205 201 217 226 229 226 239 327 100 108 117 185 221 242 237 238 236 243 231 235 223 205 206 222 260 292 260 310 326 310 283 276 297 315 323 318 305 307 283 273 316
203 208 203 201 210 211 215 228 234 237 221 194 129 119 102 113 120 223 239 240 226 224 230 227 213 171 157 214 238 232 255 281 317 320 300 291 293 320 318 319 323 313 284 317 317
198 200 201 199 216 224 233 240 236 245 227 211 183 158 216 153 135 148 225 227 220 222 219 227 230 221 224 232 249 251 275 307 327 309 303 287 307 332 344 349 347 324 315 324 316
199 201 198 194 186 205 226 238 245 218 204 215 212 205 196 193 175 185 211 231 213 211 214 231 245 229 233 229 272 287 296 303 311 312 298 312 317 345 338 354 343 332 307 320 324
205 203 205 201 198 209 221 220 216 199 179 185 200 203 198 200 188 205 222 233 238 237 245 248 254 250 222 272 275 282 289 300 330 326 316 316 314 320 316 329 324 314 302 312 333
209 210 205 211 210 211 212 218 208 191 184 189 191 196 193 208 227 254 255 242 243 240 237 241 252 250 262 267 257 270 301 306 326 324 311 300 297 302 306 329 328 310 300 320 329
Height
3178 3181 3182 3184 3186 3187 3189 3190 3191 3191 3191 3191 3191 3192 3191 3191 3192 3192 3194 3196 3198 3201 3205 3207 3211 3215 3218 3220 3220 3221 3222 3221 3222 3222 3222 3221 3221 3222 3222 3221 3222 3222 3222 3222 3223
3176 3179 3180 3182 3183 3185 3187 3188 3189 3189 3189 3189 3190 3190 3189 3189 3190 3191 3193 3195 3198 3201 3204 3207 3212 3216 3219 3220 3220 3220 3220 3220 3221 3221 3222 3222 3222 3222 3223 3222 3222 3223 3223 3223 3224
3174 3176 3178 3180 3181 3183 3186 3186 3187 3188 3188 3188 3189 3189 3189 3189 3190 3191 3192 3195 3198 3202 3205 3209 3213 3217 3219 3219 3220 3219 3219 3220 3220 3221 3221 3221 3222 3222 3223 3223 3224 3224 3224 3224 3224
3172 3175 3177 3178 3179 3181 3184 3185 3186 3187 3187 3187 3189 3189 3189 3189 3193 3191 3193 3196 3199 3203 3207 3211 3215 3218 3219 3218 3217 3218 3219 3220 3220 3220 3221 3221 3222 3222 3222 3224 3223 3224 3224 3224 3226
3171 3173 3175 3177 3178 3180 3183 3184 3184 3186 3186 3187 3189 3190 3189 3190 3191 3192 3194 3198 3201 3204 3208 3212 3215 3218 3218 3217 3217 3218 3219 3220 3220 3220 3221 3221 3222 3223 3222 3222 3222 3223 3224 3224 3226
3169 3172 3173 3176 3177 3180 3182 3183 3183 3185 3186 3188 3190 3191 3192 3193 3194 3196 3198 3200 3203 3206 3209 3212 3215 3217 3217 3217 3218 3218 3218 3219 3220 3220 3220 3220 3221 3221 3221 3222 3221 3221 3223 3223 3224
3168 3170 3171 3175 3176 3179 3181 3183 3183 3185 3187 3189 3191 3193 3195 3197 3198 3199 3201 3203 3205 3207 3209 3213 3215 3217 3217 3217 3218 3218 3217 3217 3217 3218 3218 3219 3220 3218 3221 3220 3220 3220 3221 3221 3222
3166 3168 3171 3173 3176 3179 3181 3182 3183 3186 3187 3190 3193 3195 3196 3198 3200 3202 3203 3205 3207 3208 3210 3213 3216 3216 3216 3217 3217 3217 3216 3216 3216 3216 3217 3219 3218 3219 3219 3219 3219 3218 3219 3220 3221
3165 3167 3170 3173 3176 3178 3180 3181 3183 3186 3188 3191 3195 3196 3199 3200 3202 3203 3205 3206 3207 3209 3211 3214 3215 3216 3217 3217 3218 3217 3217 3216 3217 3216 3217 3218 3218 3217 3217 3216 3216 3216 3218 3219 3220
3165 3167 3170 3173 3175 3177 3179 3181 3182 3186 3189 3191 3195 3200 3200 3202 3203 3204 3206 3207 3208 3210 3212 3214 3215 3215 3216 3217 3218 3218 3217 3217 3217 3218 3217 3217 3217 3216 3215 3214 3213 3214 3216 3218 3218
3164 3167 3169 3172 3173 3176 3178 3181 3185 3189 3189 3192 3195 3197 3199 3202 3204 3206 3208 3209 3210 3212 3213 3214 3215 3216 3216 3217 3218 3218 3218 3218 3218 3218 3217 3217 3216 3214 3213 3211 3211 3212 3213 3216 3217
3163 3166 3167 3170 3173 3175 3177 3180 3183 3188 3191 3193 3196 3197 3199 3202 3204 3206 3208 3211 3210 3211 3212 3214 3215 3216 3217 3217 3218 3218 3218 3219 3218 3216 3216 3214 3213 3212 3210 3208 3208 3209 3211 3214 3215
3163 3165 3166 3170 3172 3175 3177 3181 3184 3187 3191 3194 3195 3197 3200 3203 3204 3205 3208 3209 3210 3211 3213 3214 3216 3215 3216 3217 3218 3218 3218 3217 3217 3214 3213 3212 3211 3210 3209 3208 3208 3209 3211 3213 3214
3163 3165 3167 3170 3175 3176 3180 3182 3185 3189 3193 3196 3197 3199 3201 3202 3204 3205 3207 3210 3211 3212 3213 3214 3213 3215 3216 3217 3218 3218 3217 3215 3213 3213 3212 3211 3210 3209 3208 3209 3210 3210 3211 3212 3212
3163 3165 3168 3171 3174 3178 3182 3183 3186 3190 3193 3197 3197 3199 3200 3204 3205 3206 3208 3209 3211 3211 3214 3214 3214 3215 3216 3217 3217 3218 3216 3213 3211 3210 3211 3211 3211 3208 3208 3210 3210 3211 3211 3211 3210
3164 3166 3168 3171 3175 3180 3182 3185 3188 3193 3191 3194 3195 3197 3200 3202 3204 3206 3208 3209 3210 3211 3212 3213 3214 3216 3216 3217 3217 3217 3215 3212 3210 3210 3211 3211 3211 3208 3209 3210 3210 3210 3210 3209 3208
3165 3167 3169 3172 3177 3181 3183 3186 3190 3189 3192 3194 3193 3195 3198 3201 3203 3205 3207 3208 3209 3211 3212 3214 3215 3216 3217 3217 3217 3216 3214 3212 3211 3211 3212 3211 3211 3209 3209 3209 3209 3209 3208 3207 3205
3165 3167 3169 3173 3177 3181 3184 3188 3188 3189 3190 3191 3192 3195 3198 3200 3202 3204 3206 3207 3208 3209 3211 3213 3216 3216 3216 3217 3217 3215 3215 3215 3215 3213 3213 3211 3211 3210 3209 3208 3207 3206 3206 3204 3202
3165 3167 3170 3173 3177 3181 3185 3187 3188 3188 3190 3190 3192 3194 3197 3199 3202 3204 3205 3207 3208 3209 3211 3212 3214 3214 3215 3215 3216 3215 3215 3216 3214 3214 3214 3211 3210 3208 3207 3206 3205 3204 3203 3201 3200
3164 3167 3170 3173 3177 3181 3185 3186 3187 3188 3189 3190 3191 3193 3196 3199 3201 3203 3205 3206 3207 3209 3209 3211 3213 3213 3214 3215 3215 3214 3215 3215 3214 3213 3211 3210 3209 3207 3205 3204 3202 3201 3199 3198 3197
3165 3167 3169 3172 3176 3180 3183 3185 3187 3188 3189 3191 3191 3192 3193 3196 3199 3202 3204 3205 3206 3207 3208 3209 3211 3213 3213 3213 3213 3213 3213 3213 3214 3214 3212 3208 3206 3204 3203 3201 3199 3197 3195 3194 3193
3163 3165 3167 3171 3176 3178 3181 3183 3185 3187 3189 3190 3191 3192 3194 3195 3197 3199 3201 3202 3203 3205 3206 3207 3209 3210 3211 3211 3212 3212 3211 3212 3211 3212 3210 3208 3204 3201 3200 3198 3195 3193 3190 3191 3190
3162 3164 3166 3169 3172 3176 3179 3181 3184 3186 3189 3190 3191 3192 3193 3195 3197 3197 3198 3199 3201 3202 3204 3205 3207 3208 3210 3212 3211 3210 3210 3210 3209 3208 3207 3207 3202 3199 3196 3194 3191 3189 3188 3188 3186
3161 3163 3165 3167 3170 3174 3177 3180 3183 3184 3187 3189 3190 3192 3193 3195 3196 3197 3197 3198 3199 3201 3202 3204 3204 3205 3207 3207 3208 3208 3208 3207 3207 3205 3204 3201 3197 3196 3193 3191 3189 3187 3187 3186 3184
3158 3160 3163 3165 3169 3171 3175 3178 3179 3182 3184 3186 3189 3191 3193 3194 3196 3196 3197 3198 3199 3200 3201 3203 3203 3204 3204 3205 3206 3206 3206 3205 3204 3202 3200 3198 3195 3194 3192 3190 3188 3187 3185 3183 3181
3156 3159 3161 3165 3167 3170 3173 3176 3178 3180 3183 3184 3188 3189 3191 3194 3195 3196 3197 3198 3199 3199 3200 3201 3201 3202 3203 3203 3204 3204 3203 3203 3201 3199 3198 3196 3194 3192 3190 3188 3186 3184 3182 3180 3178
3153 3155 3159 3162 3165 3169 3171 3174 3177 3178 3181 3183 3185 3187 3189 3191 3193 3194 3196 3196 3197 3198 3198 3199 3200 3201 3201 3201 3201 3203 3201 3201 3199 3197 3196 3193 3192 3190 3188 3186 3184 3181 3180 3178 3175